Location: Unspecified
(54.1780°N, 0.0000°E)
Time: 18:09:50
(UTC+00:00)

Transit 2A - Pass Details

Date: 23 June 2019
Orbit: 594 x 965 km, 66.7° (Epoch: 15 July)

Event Time Altitude Azimuth Distance (km) Brightness Sun altitude
Rises 23:51:27 0° 192° (SSW) 3,631 - -12.4°
Reaches altitude 10° 23:54:08 10° 186° (S) 2,697 - -12.4°
Exits shadow 23:55:29 17° 180° (S) 2,255 7.7 -12.4°
Maximum altitude 00:00:03 42° 118° (ESE) 1,333 7.0 -12.4°
Drops below altitude 10° 00:05:51 10° 49° (NE) 2,638 9.4 -12.4°
Sets 00:08:26 0° 43° (NE) 3,544 10.2 -12.4°
